Meteor 1-4 Rocket - Orbit

View from above orbital plane
View from above orbital plane
View from above satellite
View from above satellite

Ground track
Ground track

The orbit data is extracted from the following two-line orbital elements,

1 04394U 70037B   13168.50304024  .00001485  00000-0  71304-4 0  3221
2 04394 081.2490 277.6372 0052686 038.9758 321.5249 15.16931135342377
Epoch (UTC): 17 June 2013 12:04:22
Eccentricity: 0.0052686
inclination: 81.2490°
perigee height: 479 km
apogee height: 551 km
right ascension of ascending node: 277.6372°
argument of perigee: 38.9758°
revolutions per day: 15.16931135
mean anomaly at epoch: 321.5249°
orbit number at epoch: 34237

The dashed part of the orbit path shows where the satellite is in the earth's shadow,  

Developed and maintained by Chris Peat, Heavens-Above GmbH. Please read the updated FAQ before sending e-mail. Imprint. DLR